Weather in Ugleural'skij

Russia / Perm Krai     58°56′26″N   57°35′13″E
temp.,
°C
wind,
m/s
gust,
m/s
humid.,
%
clouds,
%
prec.,
mm/h
press.,
hPa
HPBL,
m
4 march, thu
thu423:00−8w129897 0.5 99522
02:00−9sw1297100 0.1 99537
05:00−11sw2297100 0.4 99468
08:00−11sw2597100 0.4 994172
11:00−8sw3694100 0.8 994365
14:00−6sw3689100 0.3 993772
17:00−6ssw4791100 0.4 993657
20:00−7sse2996100 0.3 992373
5 march, fri
fri523:00−7sse31093100 0.6 989478
02:00−8se41091100 0.3 986453
05:00−9e3793100 0.6 986253
08:00−9e2595100 0.1 988150
11:00−6nw1193100 0.5 991243
14:00−5wnw3594100 0.6 993521
17:00−6wnw5895100 1.7 996721
20:00−9w51095100 1.0 998591
6 march, sat
sat623:00−13w41095100 1.4 1001411
02:00−19wsw1210093 0.0 100320
05:00−18sw129896 0.1 100420
08:00−17wsw1298100 0.3 100547
11:00−15w3694100 0.4 1006493
14:00−14w4691100 0.2 1007642
17:00−14w4692100 0.4 1008622
20:00−17wsw2399100 0.1 100980
7 march, sun
sun723:00−18sw2299100 0.2 101035
02:00−19ssw2299100 0.1 101028
05:00−20ssw2299100 0.2 101051
08:00−21ssw2299100 0.1 100935
11:00−18sw1393100 0.2 1009324
14:00−15wsw2285100 0.1 1008695
17:00−15wsw2387100 0.2 1008676
20:00−21sw01100100 0.0 100920
8 march, mon
mon823:00−21sse229983 0.1 101020
02:00−22se229987 0.0 100920
05:00−23ese229991 0.0 100838
08:00−22ese349798 0.0 1006124
11:00−17ese399399 0.0 1004298
14:00−12sse4992100 0.3 1002550
17:00−11sse4891100 0.8 1002744
20:00−12se3895100 0.5 1002404